owner,sensor,date,latitude,longitude,vertical_datum,direction_of_sea_water_velocity,sea_water_speed,upward_sea_water_velocity,qcFlag 
TABS,ioos:station:wmo:42044:1,2009-08-01T00:00:00Z,26.1914,-97.0507,2.0,291.59317,13.26059199,-99999.0,'11111222,11111222,99999999' 
TABS,ioos:station:wmo:42044:1,2009-08-01T00:30:00Z,26.1914,-97.0507,2.0,305.892019,12.41780979,-99999.0,'11111222,11111222,99999999' 
TABS,ioos:station:wmo:42044:1,2009-08-01T01:00:00Z,26.1914,-97.0507,2.0,301.4403608,12.99832682,-99999.0,'11111222,11111222,99999999' 
TABS,ioos:station:wmo:42044:1,2009-08-01T01:30:00Z,26.1914,-97.0507,2.0,299.5510802,6.954667497,-99999.0,'11133222,11111222,99999999' 
TABS,ioos:station:wmo:42044:1,2009-08-01T02:00:00Z,26.1914,-97.0507,2.0,308.8364099,12.18317282,-99999.0,'11111222,11111222,99999999' 
TABS,ioos:station:wmo:42044:1,2009-08-01T02:30:00Z,26.1914,-97.0507,2.0,300.5358607,8.719231618,-99999.0,'11133222,11111222,99999999' 
TABS,ioos:station:wmo:42044:1,2009-08-01T03:00:00Z,26.1914,-97.0507,2.0,304.0316901,7.915712223,-99999.0,'11133222,11111222,99999999' 
TABS,ioos:station:wmo:42044:1,2009-08-01T03:30:00Z,26.1914,-97.0507,2.0,310.6455253,7.077358264,-99999.0,'11133222,11111222,99999999' 
TABS,ioos:station:wmo:42044:1,2009-08-01T04:00:00Z,26.1914,-97.0507,2.0,317.5802716,8.95397677,-99999.0,'11133222,11111222,99999999' 
TABS,ioos:station:wmo:42044:1,2009-08-01T04:30:00Z,26.1914,-97.0507,2.0,320.9986479,9.946883934,-99999.0,'11133222,11111222,99999999' 
TABS,ioos:station:wmo:42044:1,2009-08-01T05:00:00Z,26.1914,-97.0507,2.0,324.9536354,10.30921918,-99999.0,'11111222,11111222,99999999' 
TABS,ioos:station:wmo:42044:1,2009-08-01T05:30:00Z,26.1914,-97.0507,2.0,340.592831,12.66990923,-99999.0,'11111222,11111222,99999999' 
TABS,ioos:station:wmo:42044:1,2009-08-01T06:00:00Z,26.1914,-97.0507,2.0,337.1362521,12.81703944,-99999.0,'11111222,11111222,99999999' 
TABS,ioos:station:wmo:42044:1,2009-08-01T06:30:00Z,26.1914,-97.0507,2.0,339.0780803,13.55364158,-99999.0,'11111222,11111222,99999999' 
TABS,ioos:station:wmo:42044:1,2009-08-01T07:00:00Z,26.1914,-97.0507,2.0,351.4281547,18.51684908,-99999.0,'11111222,11111222,99999999' 
TABS,ioos:station:wmo:42044:1,2009-08-01T07:30:00Z,26.1914,-97.0507,2.0,352.5026024,25.36687998,-99999.0,'11111222,11111222,99999999' 
TABS,ioos:station:wmo:42044:1,2009-08-01T08:00:00Z,26.1914,-97.0507,2.0,353.3992887,23.05281978,-99999.0,'11111222,11111222,99999999' 
TABS,ioos:station:wmo:42044:1,2009-08-01T08:30:00Z,26.1914,-97.0507,2.0,358.9362112,27.46473557,-99999.0,'11111222,11111222,99999999' 
TABS,ioos:station:wmo:42044:1,2009-08-01T09:00:00Z,26.1914,-97.0507,2.0,3.014053542,28.33919724,-99999.0,'11111222,11111222,99999999' 
TABS,ioos:station:wmo:42044:1,2009-08-01T09:30:00Z,26.1914,-97.0507,2.0,359.9602832,28.70000697,-99999.0,'11111222,11144222,99999999' 
TABS,ioos:station:wmo:42044:1,2009-08-01T10:00:00Z,26.1914,-97.0507,2.0,2.756043205,29.5341565,-99999.0,'11111222,11111222,99999999' 
TABS,ioos:station:wmo:42044:1,2009-08-01T10:30:00Z,26.1914,-97.0507,2.0,10.22175433,30.76832787,-99999.0,'11111222,11111222,99999999' 
TABS,ioos:station:wmo:42044:1,2009-08-01T11:00:00Z,26.1914,-97.0507,2.0,14.69304047,22.43359311,-99999.0,'11111222,11111222,99999999' 
TABS,ioos:station:wmo:42044:1,2009-08-01T11:30:00Z,26.1914,-97.0507,2.0,0.644989539,6.220393878,-99999.0,'11133222,11111222,99999999' 
TABS,ioos:station:wmo:42044:1,2009-08-01T12:00:00Z,26.1914,-97.0507,2.0,15.54398378,28.02499063,-99999.0,'11111222,11111222,99999999' 
TABS,ioos:station:wmo:42044:1,2009-08-01T12:30:00Z,26.1914,-97.0507,2.0,13.28283544,28.02984124,-99999.0,'11111222,11111222,99999999' 
TABS,ioos:station:wmo:42044:1,2009-08-01T13:00:00Z,26.1914,-97.0507,2.0,11.37470222,27.83674191,-99999.0,'11111222,11111222,99999999' 
TABS,ioos:station:wmo:42044:1,2009-08-01T13:30:00Z,26.1914,-97.0507,2.0,19.90799448,27.31212917,-99999.0,'11111222,11111222,99999999' 
TABS,ioos:station:wmo:42044:1,2009-08-01T14:00:00Z,26.1914,-97.0507,2.0,18.5819023,25.92127505,-99999.0,'11111222,11111222,99999999' 
TABS,ioos:station:wmo:42044:1,2009-08-01T14:30:00Z,26.1914,-97.0507,2.0,26.38423719,18.4074034,-99999.0,'11111222,11111222,99999999' 
TABS,ioos:station:wmo:42044:1,2009-08-01T15:00:00Z,26.1914,-97.0507,2.0,19.97352996,15.0768498,-99999.0,'11111222,11111222,99999999' 
TABS,ioos:station:wmo:42044:1,2009-08-01T15:30:00Z,26.1914,-97.0507,2.0,32.77051807,17.62509574,-99999.0,'11111222,11111222,99999999' 
TABS,ioos:station:wmo:42044:1,2009-08-01T16:00:00Z,26.1914,-97.0507,2.0,36.76855391,16.94002656,-99999.0,'11111222,11111222,99999999' 
TABS,ioos:station:wmo:42044:1,2009-08-01T16:30:00Z,26.1914,-97.0507,2.0,33.45760652,14.3474388,-99999.0,'11111222,11111222,99999999' 
TABS,ioos:station:wmo:42044:1,2009-08-01T17:00:00Z,26.1914,-97.0507,2.0,46.51251018,12.85968118,-99999.0,'11111222,11111222,99999999' 
TABS,ioos:station:wmo:42044:1,2009-08-01T17:30:00Z,26.1914,-97.0507,2.0,39.56351538,15.44906793,-99999.0,'11111222,11111222,99999999' 
TABS,ioos:station:wmo:42044:1,2009-08-01T18:00:00Z,26.1914,-97.0507,2.0,41.56532135,6.963368438,-99999.0,'11133222,11111222,99999999' 
TABS,ioos:station:wmo:42044:1,2009-08-01T18:30:00Z,26.1914,-97.0507,2.0,34.43301204,6.631998191,-99999.0,'11133222,11111222,99999999' 
TABS,ioos:station:wmo:42044:1,2009-08-01T19:00:00Z,26.1914,-97.0507,2.0,37.84299172,10.95357932,-99999.0,'11111222,11111222,99999999' 
TABS,ioos:station:wmo:42044:1,2009-08-01T19:30:00Z,26.1914,-97.0507,2.0,58.4040722,6.527633568,-99999.0,'11133222,11111222,99999999' 
TABS,ioos:station:wmo:42044:1,2009-08-01T20:00:00Z,26.1914,-97.0507,2.0,38.78448386,6.46560902,-99999.0,'11133222,11111222,99999999' 
TABS,ioos:station:wmo:42044:1,2009-08-01T20:30:00Z,26.1914,-97.0507,2.0,31.61231217,8.031793075,-99999.0,'11133222,11111222,99999999' 
TABS,ioos:station:wmo:42044:1,2009-08-01T21:00:00Z,26.1914,-97.0507,2.0,37.94493567,5.757013114,-99999.0,'11133222,11111222,99999999' 
TABS,ioos:station:wmo:42044:1,2009-08-01T21:30:00Z,26.1914,-97.0507,2.0,40.04299075,2.782265264,-99999.0,'11133222,11111222,99999999' 
TABS,ioos:station:wmo:42044:1,2009-08-01T22:00:00Z,26.1914,-97.0507,2.0,30.31494253,2.119858486,-99999.0,'11133222,11111222,99999999' 
TABS,ioos:station:wmo:42044:1,2009-08-01T22:30:00Z,26.1914,-97.0507,2.0,34.54604589,3.156596268,-99999.0,'11133222,11111222,99999999' 
TABS,ioos:station:wmo:42044:1,2009-08-01T23:00:00Z,26.1914,-97.0507,2.0,49.37716297,2.872159466,-99999.0,'11133222,11111222,99999999' 
TABS,ioos:station:wmo:42044:1,2009-08-01T23:30:00Z,26.1914,-97.0507,2.0,43.68230521,5.226901568,-99999.0,'11133222,11111222,99999999' 
TABS,ioos:station:wmo:42044:1,2009-08-02T00:00:00Z,26.1914,-97.0507,2.0,352.0148534,5.038858998,-99999.0,'11133222,11111222,99999999' 
TABS,ioos:station:wmo:42044:1,2009-08-02T00:30:00Z,26.1914,-97.0507,2.0,340.5729572,7.486234033,-99999.0,'11133222,11111222,99999999' 
TABS,ioos:station:wmo:42044:1,2009-08-02T01:00:00Z,26.1914,-97.0507,2.0,334.2878698,7.81368671,-99999.0,'11133222,11111222,99999999' 
TABS,ioos:station:wmo:42044:1,2009-08-02T01:30:00Z,26.1914,-97.0507,2.0,302.3219406,4.993726064,-99999.0,'11133222,11111222,99999999' 
TABS,ioos:station:wmo:42044:1,2009-08-02T02:00:00Z,26.1914,-97.0507,2.0,324.6264252,5.285801737,-99999.0,'11133222,11111222,99999999' 
TABS,ioos:station:wmo:42044:1,2009-08-02T02:30:00Z,26.1914,-97.0507,2.0,328.7379505,12.50584663,-99999.0,'11111222,11111222,99999999' 
TABS,ioos:station:wmo:42044:1,2009-08-02T03:00:00Z,26.1914,-97.0507,2.0,326.3580678,13.28507433,-99999.0,'11111222,11111222,99999999' 
TABS,ioos:station:wmo:42044:1,2009-08-02T03:30:00Z,26.1914,-97.0507,2.0,330.1388496,15.24390042,-99999.0,'11111222,11111222,99999999' 
TABS,ioos:station:wmo:42044:1,2009-08-02T04:00:00Z,26.1914,-97.0507,2.0,328.1445399,15.42302175,-99999.0,'11111222,11111222,99999999' 
TABS,ioos:station:wmo:42044:1,2009-08-02T04:30:00Z,26.1914,-97.0507,2.0,329.9786103,16.68906828,-99999.0,'11111222,11111222,99999999' 
TABS,ioos:station:wmo:42044:1,2009-08-02T05:00:00Z,26.1914,-97.0507,2.0,329.5227578,16.97554123,-99999.0,'11111222,11111222,99999999' 
TABS,ioos:station:wmo:42044:1,2009-08-02T05:30:00Z,26.1914,-97.0507,2.0,332.1672145,20.41135468,-99999.0,'11111222,11111222,99999999' 
TABS,ioos:station:wmo:42044:1,2009-08-02T06:00:00Z,26.1914,-97.0507,2.0,330.594062,18.67623624,-99999.0,'11111222,11111222,99999999' 
TABS,ioos:station:wmo:42044:1,2009-08-02T06:30:00Z,26.1914,-97.0507,2.0,331.5501907,20.52926935,-99999.0,'11111222,11111222,99999999' 
TABS,ioos:station:wmo:42044:1,2009-08-02T07:00:00Z,26.1914,-97.0507,2.0,330.0255959,21.95680532,-99999.0,'11111222,11111222,99999999' 
TABS,ioos:station:wmo:42044:1,2009-08-02T07:30:00Z,26.1914,-97.0507,2.0,332.7080997,22.20147067,-99999.0,'11111222,11111222,99999999' 
TABS,ioos:station:wmo:42044:1,2009-08-02T08:00:00Z,26.1914,-97.0507,2.0,331.6072574,23.55330975,-99999.0,'11111222,11111222,99999999' 
TABS,ioos:station:wmo:42044:1,2009-08-02T08:30:00Z,26.1914,-97.0507,2.0,329.2680388,24.61710787,-99999.0,'11111222,11111222,99999999' 
TABS,ioos:station:wmo:42044:1,2009-08-02T09:00:00Z,26.1914,-97.0507,2.0,333.0289519,23.96677909,-99999.0,'11111222,11111222,99999999' 
TABS,ioos:station:wmo:42044:1,2009-08-02T09:30:00Z,26.1914,-97.0507,2.0,336.6178901,24.9706728,-99999.0,'11111222,11111222,99999999' 
TABS,ioos:station:wmo:42044:1,2009-08-02T10:00:00Z,26.1914,-97.0507,2.0,343.0198997,26.16046636,-99999.0,'11111222,11111222,99999999' 
TABS,ioos:station:wmo:42044:1,2009-08-02T10:30:00Z,26.1914,-97.0507,2.0,335.9417893,24.84860157,-99999.0,'11111222,11111222,99999999' 
TABS,ioos:station:wmo:42044:1,2009-08-02T11:00:00Z,26.1914,-97.0507,2.0,342.7927698,23.32398765,-99999.0,'11111222,11111222,99999999' 
TABS,ioos:station:wmo:42044:1,2009-08-02T11:30:00Z,26.1914,-97.0507,2.0,345.1499069,13.65613415,-99999.0,'11111222,11111222,99999999' 
TABS,ioos:station:wmo:42044:1,2009-08-02T12:00:00Z,26.1914,-97.0507,2.0,341.8031127,22.09502433,-99999.0,'11111222,11111222,99999999' 
TABS,ioos:station:wmo:42044:1,2009-08-02T12:30:00Z,26.1914,-97.0507,2.0,345.4858585,23.54132749,-99999.0,'11111222,11111222,99999999' 
TABS,ioos:station:wmo:42044:1,2009-08-02T13:00:00Z,26.1914,-97.0507,2.0,347.0220636,23.51056146,-99999.0,'11111222,11111222,99999999' 
TABS,ioos:station:wmo:42044:1,2009-08-02T13:30:00Z,26.1914,-97.0507,2.0,352.3777867,20.43053107,-99999.0,'11111222,11111222,99999999' 
TABS,ioos:station:wmo:42044:1,2009-08-02T14:00:00Z,26.1914,-97.0507,2.0,357.0421096,20.9278857,-99999.0,'11111222,11111222,99999999' 
TABS,ioos:station:wmo:42044:1,2009-08-02T14:30:00Z,26.1914,-97.0507,2.0,7.070934782,22.25928346,-99999.0,'11111222,11111222,99999999' 
TABS,ioos:station:wmo:42044:1,2009-08-02T15:00:00Z,26.1914,-97.0507,2.0,6.273833354,17.11248083,-99999.0,'11111222,11111222,99999999' 
TABS,ioos:station:wmo:42044:1,2009-08-02T15:30:00Z,26.1914,-97.0507,2.0,11.40925283,21.53554504,-99999.0,'11111222,11111222,99999999' 
TABS,ioos:station:wmo:42044:1,2009-08-02T16:00:00Z,26.1914,-97.0507,2.0,14.40940967,21.98146947,-99999.0,'11111222,11111222,99999999' 
TABS,ioos:station:wmo:42044:1,2009-08-02T16:30:00Z,26.1914,-97.0507,2.0,12.01578801,20.22306851,-99999.0,'11111222,11111222,99999999' 
TABS,ioos:station:wmo:42044:1,2009-08-02T17:00:00Z,26.1914,-97.0507,2.0,16.4442341,19.57050076,-99999.0,'11111222,11111222,99999999' 
TABS,ioos:station:wmo:42044:1,2009-08-02T17:30:00Z,26.1914,-97.0507,2.0,15.21517752,20.04253477,-99999.0,'11111222,11111222,99999999' 
TABS,ioos:station:wmo:42044:1,2009-08-02T18:00:00Z,26.1914,-97.0507,2.0,24.7700041,15.13219085,-99999.0,'11111222,11111222,99999999' 
TABS,ioos:station:wmo:42044:1,2009-08-02T18:30:00Z,26.1914,-97.0507,2.0,27.69961849,6.324839919,-99999.0,'11133222,11111222,99999999' 
TABS,ioos:station:wmo:42044:1,2009-08-02T19:00:00Z,26.1914,-97.0507,2.0,30.66279411,9.137570793,-99999.0,'11133222,11111222,99999999' 
TABS,ioos:station:wmo:42044:1,2009-08-02T19:30:00Z,26.1914,-97.0507,2.0,21.39692426,7.099309826,-99999.0,'11133222,11111222,99999999' 
TABS,ioos:station:wmo:42044:1,2009-08-02T20:00:00Z,26.1914,-97.0507,2.0,349.6355181,4.279836445,-99999.0,'11133222,11111222,99999999' 
TABS,ioos:station:wmo:42044:1,2009-08-02T20:30:00Z,26.1914,-97.0507,2.0,13.62299007,4.033472449,-99999.0,'11133222,11111222,99999999' 
TABS,ioos:station:wmo:42044:1,2009-08-02T21:00:00Z,26.1914,-97.0507,2.0,16.19448224,3.4780023,-99999.0,'11133222,11111222,99999999' 
TABS,ioos:station:wmo:42044:1,2009-08-02T21:30:00Z,26.1914,-97.0507,2.0,3.332154734,2.924944444,-99999.0,'11133222,11111222,99999999' 
TABS,ioos:station:wmo:42044:1,2009-08-02T22:00:00Z,26.1914,-97.0507,2.0,28.96780337,4.480546842,-99999.0,'11133222,11111222,99999999' 
TABS,ioos:station:wmo:42044:1,2009-08-02T22:30:00Z,26.1914,-97.0507,2.0,45.14088049,8.633799859,-99999.0,'11133222,11111222,99999999' 
TABS,ioos:station:wmo:42044:1,2009-08-02T23:00:00Z,26.1914,-97.0507,2.0,32.05751123,3.504354434,-99999.0,'11133222,11111222,99999999' 
TABS,ioos:station:wmo:42044:1,2009-08-02T23:30:00Z,26.1914,-97.0507,2.0,39.92913227,4.159927884,-99999.0,'11133222,11111222,99999999' 
TABS,ioos:station:wmo:42044:1,2009-08-03T00:00:00Z,26.1914,-97.0507,2.0,4.044686575,1.984943324,-99999.0,'11133222,11111222,99999999' 
TABS,ioos:station:wmo:42044:1,2009-08-03T00:30:00Z,26.1914,-97.0507,2.0,33.01117149,1.872244642,-99999.0,'11133222,11111222,99999999' 
TABS,ioos:station:wmo:42044:1,2009-08-03T01:00:00Z,26.1914,-97.0507,2.0,350.8860567,3.787822594,-99999.0,'11133222,11111222,99999999' 
TABS,ioos:station:wmo:42044:1,2009-08-03T01:30:00Z,26.1914,-97.0507,2.0,340.4636012,1.64468842,-99999.0,'11133222,11111222,99999999' 
TABS,ioos:station:wmo:42044:1,2009-08-03T02:00:00Z,26.1914,-97.0507,2.0,30.47373467,3.608462276,-99999.0,'11133222,11111222,99999999' 
TABS,ioos:station:wmo:42044:1,2009-08-03T02:30:00Z,26.1914,-97.0507,2.0,12.83312786,2.65635088,-99999.0,'11133222,11111222,99999999' 
TABS,ioos:station:wmo:42044:1,2009-08-03T03:00:00Z,26.1914,-97.0507,2.0,319.2487603,2.481692971,-99999.0,'11133222,11111222,99999999' 
TABS,ioos:station:wmo:42044:1,2009-08-03T03:30:00Z,26.1914,-97.0507,2.0,323.5694375,2.088061302,-99999.0,'11133222,11111222,99999999' 
TABS,ioos:station:wmo:42044:1,2009-08-03T04:00:00Z,26.1914,-97.0507,2.0,299.8856246,4.555809478,-99999.0,'11133222,11111222,99999999' 
TABS,ioos:station:wmo:42044:1,2009-08-03T04:30:00Z,26.1914,-97.0507,2.0,306.3564692,6.022242107,-99999.0,'11133222,11111222,99999999' 
TABS,ioos:station:wmo:42044:1,2009-08-03T05:00:00Z,26.1914,-97.0507,2.0,303.9594013,6.498384415,-99999.0,'11133222,11111222,99999999' 
TABS,ioos:station:wmo:42044:1,2009-08-03T05:30:00Z,26.1914,-97.0507,2.0,308.6601388,3.073499634,-99999.0,'11133222,11111222,99999999' 
TABS,ioos:station:wmo:42044:1,2009-08-03T06:00:00Z,26.1914,-97.0507,2.0,301.8493978,8.546794721,-99999.0,'11133222,11111222,99999999' 
TABS,ioos:station:wmo:42044:1,2009-08-03T06:30:00Z,26.1914,-97.0507,2.0,304.6595197,7.051248116,-99999.0,'11133222,11111222,99999999' 
TABS,ioos:station:wmo:42044:1,2009-08-03T07:00:00Z,26.1914,-97.0507,2.0,309.3941628,9.264987858,-99999.0,'11133222,11111222,99999999' 
TABS,ioos:station:wmo:42044:1,2009-08-03T07:30:00Z,26.1914,-97.0507,2.0,305.0151065,10.31740762,-99999.0,'11111222,11111222,99999999' 
TABS,ioos:station:wmo:42044:1,2009-08-03T08:00:00Z,26.1914,-97.0507,2.0,311.1395921,13.86246731,-99999.0,'11111222,11111222,99999999' 
TABS,ioos:station:wmo:42044:1,2009-08-03T08:30:00Z,26.1914,-97.0507,2.0,319.7493561,13.83608326,-99999.0,'11111222,11111222,99999999' 
TABS,ioos:station:wmo:42044:1,2009-08-03T09:00:00Z,26.1914,-97.0507,2.0,321.6030639,16.35781159,-99999.0,'11111222,11111222,99999999' 
TABS,ioos:station:wmo:42044:1,2009-08-03T09:30:00Z,26.1914,-97.0507,2.0,320.0939164,16.00847588,-99999.0,'11111222,11111222,99999999' 
TABS,ioos:station:wmo:42044:1,2009-08-03T10:00:00Z,26.1914,-97.0507,2.0,318.3552708,16.55345583,-99999.0,'11111222,11111222,99999999' 
TABS,ioos:station:wmo:42044:1,2009-08-03T10:30:00Z,26.1914,-97.0507,2.0,322.8586596,16.44618497,-99999.0,'11111222,11111222,99999999' 
TABS,ioos:station:wmo:42044:1,2009-08-03T11:00:00Z,26.1914,-97.0507,2.0,328.7110604,15.09554901,-99999.0,'11111222,11111222,99999999' 
TABS,ioos:station:wmo:42044:1,2009-08-03T11:30:00Z,26.1914,-97.0507,2.0,345.7165803,3.931539139,-99999.0,'11133222,11111222,99999999' 
TABS,ioos:station:wmo:42044:1,2009-08-03T12:00:00Z,26.1914,-97.0507,2.0,344.6477779,13.9373491,-99999.0,'11111222,11111222,99999999' 
TABS,ioos:station:wmo:42044:1,2009-08-03T12:30:00Z,26.1914,-97.0507,2.0,347.7606392,15.47167735,-99999.0,'11111222,11111222,99999999' 
TABS,ioos:station:wmo:42044:1,2009-08-03T13:00:00Z,26.1914,-97.0507,2.0,338.6904769,16.01495551,-99999.0,'11111222,11111222,99999999' 
TABS,ioos:station:wmo:42044:1,2009-08-03T13:30:00Z,26.1914,-97.0507,2.0,350.790115,16.80667129,-99999.0,'11111222,11111222,99999999' 
TABS,ioos:station:wmo:42044:1,2009-08-03T14:00:00Z,26.1914,-97.0507,2.0,354.6453652,18.43043407,-99999.0,'11111222,11111222,99999999' 
TABS,ioos:station:wmo:42044:1,2009-08-03T14:30:00Z,26.1914,-97.0507,2.0,350.3584947,15.22506486,-99999.0,'11111222,11111222,99999999' 
TABS,ioos:station:wmo:42044:1,2009-08-03T15:00:00Z,26.1914,-97.0507,2.0,358.0320624,11.64687082,-99999.0,'11111222,11111222,99999999' 
TABS,ioos:station:wmo:42044:1,2009-08-03T15:30:00Z,26.1914,-97.0507,2.0,3.092407714,16.68429201,-99999.0,'11111222,11111222,99999999' 
TABS,ioos:station:wmo:42044:1,2009-08-03T16:00:00Z,26.1914,-97.0507,2.0,4.617391586,16.89482761,-99999.0,'11111222,11111222,99999999' 
TABS,ioos:station:wmo:42044:1,2009-08-03T16:30:00Z,26.1914,-97.0507,2.0,1.472151532,18.68616601,-99999.0,'11111222,11111222,99999999' 
TABS,ioos:station:wmo:42044:1,2009-08-03T17:00:00Z,26.1914,-97.0507,2.0,5.925905594,19.08196269,-99999.0,'11111222,11111222,99999999' 
TABS,ioos:station:wmo:42044:1,2009-08-03T17:30:00Z,26.1914,-97.0507,2.0,1.53454837,20.16723085,-99999.0,'11111222,11111222,99999999' 
TABS,ioos:station:wmo:42044:1,2009-08-03T18:00:00Z,26.1914,-97.0507,2.0,10.45528685,12.61951663,-99999.0,'11111222,11111222,99999999' 
TABS,ioos:station:wmo:42044:1,2009-08-03T18:30:00Z,26.1914,-97.0507,2.0,5.15551312,15.91437715,-99999.0,'11111222,11111222,99999999' 
TABS,ioos:station:wmo:42044:1,2009-08-03T19:00:00Z,26.1914,-97.0507,2.0,10.638539,15.0588313,-99999.0,'11111222,11111222,99999999' 
TABS,ioos:station:wmo:42044:1,2009-08-03T19:30:00Z,26.1914,-97.0507,2.0,18.2231727,12.82312364,-99999.0,'11111222,11111222,99999999' 
TABS,ioos:station:wmo:42044:1,2009-08-03T20:00:00Z,26.1914,-97.0507,2.0,14.48993917,20.22325394,-99999.0,'11111222,11111222,99999999' 
TABS,ioos:station:wmo:42044:1,2009-08-03T20:30:00Z,26.1914,-97.0507,2.0,0.93747892,14.67196306,-99999.0,'11111222,11111222,99999999' 
TABS,ioos:station:wmo:42044:1,2009-08-03T21:00:00Z,26.1914,-97.0507,2.0,13.08340905,16.47772436,-99999.0,'11111222,11111222,99999999' 
TABS,ioos:station:wmo:42044:1,2009-08-03T21:30:00Z,26.1914,-97.0507,2.0,20.89258768,12.75887534,-99999.0,'11111222,11111222,99999999' 
TABS,ioos:station:wmo:42044:1,2009-08-03T22:00:00Z,26.1914,-97.0507,2.0,13.36971438,12.71457825,-99999.0,'11111222,11111222,99999999' 
TABS,ioos:station:wmo:42044:1,2009-08-03T22:30:00Z,26.1914,-97.0507,2.0,7.388089786,11.35425911,-99999.0,'11111222,11111222,99999999' 
TABS,ioos:station:wmo:42044:1,2009-08-03T23:00:00Z,26.1914,-97.0507,2.0,8.460547625,10.05946818,-99999.0,'11111222,11111222,99999999' 
TABS,ioos:station:wmo:42044:1,2009-08-03T23:30:00Z,26.1914,-97.0507,2.0,352.3668977,3.914690281,-99999.0,'11133222,11111222,99999999' 
TABS,ioos:station:wmo:42044:1,2009-08-04T00:00:00Z,26.1914,-97.0507,2.0,2.997848562,9.943605986,-99999.0,'11133222,11111222,99999999' 
TABS,ioos:station:wmo:42044:1,2009-08-04T00:30:00Z,26.1914,-97.0507,2.0,11.46354094,13.18297387,-99999.0,'11111222,11111222,99999999' 
TABS,ioos:station:wmo:42044:1,2009-08-04T01:00:00Z,26.1914,-97.0507,2.0,11.39231965,6.834654344,-99999.0,'11133222,11111222,99999999' 
TABS,ioos:station:wmo:42044:1,2009-08-04T01:30:00Z,26.1914,-97.0507,2.0,4.43667457,2.326972282,-99999.0,'11133222,11111222,99999999' 
TABS,ioos:station:wmo:42044:1,2009-08-04T02:00:00Z,26.1914,-97.0507,2.0,28.8906485,4.408684611,-99999.0,'11133222,11111222,99999999' 
TABS,ioos:station:wmo:42044:1,2009-08-04T02:30:00Z,26.1914,-97.0507,2.0,336.7101477,1.643958637,-99999.0,'11133222,11111222,99999999' 
TABS,ioos:station:wmo:42044:1,2009-08-04T03:00:00Z,26.1914,-97.0507,2.0,328.3353908,1.962090722,-99999.0,'11133222,11111222,99999999' 
TABS,ioos:station:wmo:42044:1,2009-08-04T03:30:00Z,26.1914,-97.0507,2.0,349.7740137,4.562477397,-99999.0,'11133222,11111222,99999999' 
TABS,ioos:station:wmo:42044:1,2009-08-04T04:00:00Z,26.1914,-97.0507,2.0,335.2494091,4.944188508,-99999.0,'11133222,11111222,99999999' 
TABS,ioos:station:wmo:42044:1,2009-08-04T04:30:00Z,26.1914,-97.0507,2.0,339.4190007,5.319520655,-99999.0,'11133222,11111222,99999999' 
TABS,ioos:station:wmo:42044:1,2009-08-04T05:00:00Z,26.1914,-97.0507,2.0,342.234548,6.226949494,-99999.0,'11133222,11111222,99999999' 
TABS,ioos:station:wmo:42044:1,2009-08-04T05:30:00Z,26.1914,-97.0507,2.0,329.3100844,3.232785177,-99999.0,'11133222,11111222,99999999' 
TABS,ioos:station:wmo:42044:1,2009-08-04T06:00:00Z,26.1914,-97.0507,2.0,315.390076,2.078942039,-99999.0,'11133222,11111222,99999999' 
TABS,ioos:station:wmo:42044:1,2009-08-04T06:30:00Z,26.1914,-97.0507,2.0,341.6595409,3.845334836,-99999.0,'11133222,11111222,99999999' 
TABS,ioos:station:wmo:42044:1,2009-08-04T07:00:00Z,26.1914,-97.0507,2.0,349.209743,4.32649974,-99999.0,'11133222,11111222,99999999' 
TABS,ioos:station:wmo:42044:1,2009-08-04T07:30:00Z,26.1914,-97.0507,2.0,351.3784552,8.404980666,-99999.0,'11133222,11111222,99999999' 
TABS,ioos:station:wmo:42044:1,2009-08-04T08:00:00Z,26.1914,-97.0507,2.0,356.0809415,7.607792058,-99999.0,'11133222,11111222,99999999' 
TABS,ioos:station:wmo:42044:1,2009-08-04T08:30:00Z,26.1914,-97.0507,2.0,351.2540686,9.338591971,-99999.0,'11133222,11111222,99999999' 
TABS,ioos:station:wmo:42044:1,2009-08-04T09:00:00Z,26.1914,-97.0507,2.0,359.1206125,9.771151416,-99999.0,'11133222,11144222,99999999' 
TABS,ioos:station:wmo:42044:1,2009-08-04T09:30:00Z,26.1914,-97.0507,2.0,359.17131,11.75122972,-99999.0,'11111222,11144222,99999999' 
TABS,ioos:station:wmo:42044:1,2009-08-04T10:00:00Z,26.1914,-97.0507,2.0,3.861886459,18.41180328,-99999.0,'11111222,11111222,99999999' 
TABS,ioos:station:wmo:42044:1,2009-08-04T10:30:00Z,26.1914,-97.0507,2.0,2.149184996,20.5344418,-99999.0,'11111222,11111222,99999999' 
TABS,ioos:station:wmo:42044:1,2009-08-04T11:00:00Z,26.1914,-97.0507,2.0,5.465998668,20.26212723,-99999.0,'11111222,11111222,99999999' 
TABS,ioos:station:wmo:42044:1,2009-08-04T11:30:00Z,26.1914,-97.0507,2.0,3.386536869,11.85069196,-99999.0,'11111222,11111222,99999999' 
TABS,ioos:station:wmo:42044:1,2009-08-04T12:00:00Z,26.1914,-97.0507,2.0,11.10570477,9.344993312,-99999.0,'11133222,11111222,99999999' 
TABS,ioos:station:wmo:42044:1,2009-08-04T12:30:00Z,26.1914,-97.0507,2.0,8.514997601,12.42697469,-99999.0,'11111222,11111222,99999999' 
TABS,ioos:station:wmo:42044:1,2009-08-04T13:00:00Z,26.1914,-97.0507,2.0,18.45947656,14.87535546,-99999.0,'11111222,11111222,99999999' 
TABS,ioos:station:wmo:42044:1,2009-08-04T13:30:00Z,26.1914,-97.0507,2.0,14.07921097,16.23776462,-99999.0,'11111222,11111222,99999999' 
TABS,ioos:station:wmo:42044:1,2009-08-04T14:00:00Z,26.1914,-97.0507,2.0,23.94234978,17.19996512,-99999.0,'11111222,11111222,99999999' 
TABS,ioos:station:wmo:42044:1,2009-08-04T14:30:00Z,26.1914,-97.0507,2.0,15.1241824,14.5644636,-99999.0,'11111222,11111222,99999999' 
TABS,ioos:station:wmo:42044:1,2009-08-04T15:00:00Z,26.1914,-97.0507,2.0,23.61636808,14.9522607,-99999.0,'11111222,11111222,99999999' 
TABS,ioos:station:wmo:42044:1,2009-08-04T15:30:00Z,26.1914,-97.0507,2.0,20.9596914,12.13278616,-99999.0,'11111222,11111222,99999999' 
TABS,ioos:station:wmo:42044:1,2009-08-04T16:00:00Z,26.1914,-97.0507,2.0,20.49367642,11.79658425,-99999.0,'11111222,11111222,99999999' 